Weather History for KTRK - July, 2013

Change the Weather History Date:

Wednesday, July 24, 2013

  Actual Average Record
Temperature  
Mean Temperature 63 °F -  
Max Temperature 82 °F 81 °F 93 °F (1988)
Min Temperature 44 °F 43 °F 30 °F (2006)
Degree Days  
Heating Degree Days 2    
Growing Degree Days 13 (Base 50)    
Moisture  
Dew Point 46 °F    
Average Humidity 57    
Maximum Humidity 87    
Minimum Humidity 26    
Precipitation  
Precipitation 0.00 in - - ()
Sea Level Pressure  
Sea Level Pressure 30.25 in    
Wind  
Wind Speed 4 mph (SW)    
Max Wind Speed 14 mph    
Max Gust Speed 21 mph    
Visibility 10 miles    
Events      
Averages and records for this station are not official NWS values.
T = Trace of Precipitation, MM = Missing Value Source: NWS Daily Summary

Daily Weather History Graph

Daily Weather History Graph

Search for Another Location

Airport or City:

Trip Planner

Search our weather history database for the weather conditions in past years. The results will help you decide how hot, cold, wet, or windy it might be!

Date:

Astronomy

Jul. 24, 2013 Rise Set
Actual Time 5:53 AM PDT 8:19 PM PDT
Civil Twilight 5:23 AM PDT 8:50 PM PDT
Nautical Twilight 4:45 AM PDT 9:28 PM PDT
Astronomical Twilight 4:03 AM PDT 10:09 PM PDT
Moon 9:30 PM PDT (7/24) 8:18 AM PDT (7/24)
Length of Visible Light 15h 27m
Length of Day
14h 25m
Waning Gibbous, 94% of the Moon is Illuminated
Jul 24
Waning Gibbous
Jul 29
Last Quarter
Aug 6
New
Aug 14
First Quarter
Aug 20
Full

Hourly Weather History & Observations

Time (PDT) Temp. Windchill Dew Point Humidity Pressure Visibility Wind Dir Wind Speed Gust Speed Precip Events Conditions
12:15 AM 57.2 °F - 44.6 °F 63% 30.27 in 10.0 mi ESE 3.5 mph - N/A   Mostly Cloudy
12:35 AM 53.6 °F - 42.8 °F 67% 30.27 in 10.0 mi South 5.8 mph - N/A   Mostly Cloudy
12:55 AM 55.4 °F - 44.6 °F 67% 30.27 in 10.0 mi Calm Calm - N/A   Overcast
1:15 AM 57.2 °F - 44.6 °F 63% 30.26 in 10.0 mi SE 4.6 mph - N/A   Overcast
1:35 AM 53.6 °F - 42.8 °F 67% 30.26 in 10.0 mi SSW 3.5 mph - N/A   Scattered Clouds
1:55 AM 51.8 °F - 42.8 °F 71% 30.25 in 10.0 mi South 3.5 mph - N/A   Clear
2:15 AM 53.6 °F - 44.6 °F 72% 30.25 in 10.0 mi Calm Calm - N/A   Clear
2:35 AM 51.8 °F - 41.0 °F 67% 30.25 in 10.0 mi South 4.6 mph - N/A   Clear
2:55 AM 53.6 °F - 44.6 °F 72% 30.24 in 10.0 mi Calm Calm - N/A   Clear
3:15 AM 50.0 °F - 44.6 °F 82% 30.24 in 10.0 mi Calm Calm - N/A   Clear
3:35 AM 53.6 °F - 44.6 °F 72% 30.24 in 10.0 mi Calm Calm - N/A   Clear
3:55 AM 48.2 °F - 42.8 °F 82% 30.24 in 10.0 mi Calm Calm - N/A   Clear
4:15 AM 51.8 °F - 44.6 °F 76% 30.24 in 10.0 mi North 3.5 mph - N/A   Clear
4:35 AM 46.4 °F - 41.0 °F 81% 30.24 in 10.0 mi Calm Calm - N/A   Clear
4:55 AM 48.2 °F - 42.8 °F 82% 30.25 in 10.0 mi SSW 3.5 mph - N/A   Clear
5:15 AM 50.0 °F - 44.6 °F 82% 30.25 in 10.0 mi Calm Calm - N/A   Clear
5:35 AM 50.0 °F - 42.8 °F 76% 30.26 in 10.0 mi East 3.5 mph - N/A   Clear
5:55 AM 48.2 °F - 44.6 °F 87% 30.27 in 10.0 mi Calm Calm - N/A   Clear
6:15 AM 44.6 °F 43.1 °F 41.0 °F 87% 30.27 in 10.0 mi South 3.5 mph - N/A   Clear
6:35 AM 46.4 °F 44.3 °F 42.8 °F 87% 30.27 in 10.0 mi SSE 4.6 mph - N/A   Clear
6:55 AM 50.0 °F - 44.6 °F 82% 30.27 in 10.0 mi Calm Calm - N/A   Partly Cloudy
7:50 AM 57.2 °F - 46.4 °F 67% 30.27 in 10.0 mi Calm Calm - N/A   Partly Cloudy
9:50 AM 71.6 °F - 48.2 °F 43% 30.27 in 10.0 mi Calm Calm - N/A   Partly Cloudy
10:50 AM 77.0 °F - 44.6 °F 32% 30.26 in 10.0 mi West 10.4 mph - N/A   Partly Cloudy
11:50 AM 77.0 °F - 44.6 °F 32% 30.26 in 10.0 mi NNE 6.9 mph - N/A   Scattered Clouds
12:50 PM 80.6 °F - 44.6 °F 28% 30.25 in 10.0 mi NW 9.2 mph 17.3 mph N/A   Scattered Clouds
1:50 PM 82.4 °F - 44.6 °F 26% 30.24 in 10.0 mi WSW 11.5 mph 20.7 mph N/A   Scattered Clouds
2:50 PM 80.6 °F - 44.6 °F 28% 30.24 in 10.0 mi West 6.9 mph 18.4 mph N/A   Scattered Clouds
3:50 PM 82.4 °F - 46.4 °F 28% 30.22 in 10.0 mi West 13.8 mph 20.7 mph N/A   Scattered Clouds
4:50 PM 82.4 °F - 46.4 °F 28% 30.22 in 10.0 mi West 9.2 mph 17.3 mph N/A   Scattered Clouds
5:50 PM 80.6 °F - 46.4 °F 30% 30.22 in 10.0 mi WNW 10.4 mph 18.4 mph N/A   Scattered Clouds
5:55 PM 80.6 °F - 46.4 °F 30% 30.22 in 10.0 mi WNW 10.4 mph 17.3 mph N/A   Clear
6:15 PM 78.8 °F - 46.4 °F 32% 30.22 in 10.0 mi West 12.7 mph 16.1 mph N/A   Clear
6:35 PM 77.0 °F - 48.2 °F 36% 30.22 in 10.0 mi West 9.2 mph - N/A   Clear
6:55 PM 77.0 °F - 48.2 °F 36% 30.23 in 10.0 mi West 10.4 mph 19.6 mph N/A   Clear
7:15 PM 77.0 °F - 48.2 °F 36% 30.23 in 10.0 mi West 9.2 mph - N/A   Clear
7:35 PM 75.2 °F - 48.2 °F 38% 30.24 in 10.0 mi West 11.5 mph 16.1 mph N/A   Clear
7:55 PM 75.2 °F - 48.2 °F 38% 30.24 in 10.0 mi West 6.9 mph - N/A   Clear
8:15 PM 73.4 °F - 48.2 °F 41% 30.24 in 10.0 mi West 8.1 mph - N/A   Clear
8:35 PM 71.6 °F - 48.2 °F 43% 30.25 in 10.0 mi SW 4.6 mph - N/A   Clear
8:55 PM 68.0 °F - 48.2 °F 49% 30.26 in 10.0 mi SSW 4.6 mph - N/A   Clear
9:15 PM 66.2 °F - 48.2 °F 52% 30.26 in 10.0 mi SE 5.8 mph - N/A   Clear
9:35 PM 64.4 °F - 48.2 °F 56% 30.26 in 10.0 mi SE 8.1 mph - N/A   Clear
9:55 PM 62.6 °F - 48.2 °F 59% 30.27 in 10.0 mi SSE 5.8 mph - N/A   Clear
10:15 PM 60.8 °F - 46.4 °F 59% 30.27 in 10.0 mi SE 4.6 mph - N/A   Clear
10:35 PM 60.8 °F - 48.2 °F 63% 30.27 in 10.0 mi Calm Calm - N/A   Clear
10:55 PM 59.0 °F - 48.2 °F 67% 30.27 in 10.0 mi SSW 3.5 mph - N/A   Clear
11:15 PM 59.0 °F - 46.4 °F 63% 30.27 in 10.0 mi Calm Calm - N/A   Clear
11:35 PM 57.2 °F - 46.4 °F 67% 30.27 in 10.0 mi Calm Calm - N/A   Clear
11:55 PM 57.2 °F - 46.4 °F 67% 30.27 in 10.0 mi South 3.5 mph - N/A   Clear